Location: Aldenham
(51.6667°N, 0.3500°W)
Time: 06:01:40
(UTC+00:00)

Cosmos 1400 Rocket - Pass Details

Date: 18 November 2025
Orbit: 476 x 513 km, 81.1° (Epoch: 16 December)

Event Time Altitude Azimuth Distance (km) Brightness Sun altitude
Rises 17:07:58 0° 145° (SE) 2,617 6.1 -9.3°
Maximum altitude 17:12:59 14° 87° (E) 1,471 4.4 -10.1°
Enters shadow 17:13:25 14° 79° (E) 1,484 4.4 -10.1°
